Date,TemperatureHighF,TemperatureAvgF,TemperatureLowF,DewpointHighF,DewpointAvgF,DewpointLowF,HumidityHigh,HumidityAvg,HumidityLow,PressureMaxIn,PressureMinIn,WindSpeedMaxMPH,WindSpeedAvgMPH,GustSpeedMaxMPH,PrecipitationSumIn
2013-1-1,37,30,16,29,20,10,93,69,55,29.97,29.75,79,9,79,0.00
2013-1-2,29,18,7,19,12,4,91,77,61,30.18,29.94,40,3,40,0.00
2013-1-3,27,14,0,16,7,-3,92,75,54,30.21,30.02,32,2,32,0.00
2013-1-4,39,24,15,27,20,13,94,83,60,30.02,29.85,32,1,32,0.04
2013-1-5,39,32,22,29,24,19,95,73,53,30.28,29.89,58,6,58,0.02
2013-1-6,41,29,21,34,26,20,95,89,66,30.23,29.94,22,0,22,0.04
2013-1-7,36,29,17,30,24,15,96,83,59,30.41,30.00,36,3,36,0.01
2013-1-8,45,25,11,31,20,9,94,85,53,30.40,30.29,18,1,18,0.07
2013-1-9,44,30,17,36,26,15,100,85,53,30.42,30.03,65,3,65,0.09
2013-1-10,44,37,26,31,27,24,93,69,52,30.56,30.10,61,8,61,0.13
2013-1-11,35,30,23,33,27,22,97,91,74,30.56,30.20,22,0,22,0.20
2013-1-12,42,36,33,41,35,32,98,97,94,30.21,30.13,7,0,7,0.06
2013-1-13,43,36,34,43,36,34,98,98,97,30.16,30.00,18,0,18,0.00
2013-1-14,47,38,34,45,34,28,99,87,63,30.30,29.86,40,3,40,0.04
2013-1-15,39,34,28,31,28,26,93,79,62,30.35,30.24,18,1,18,0.00
2013-1-16,34,32,30,34,31,28,100,95,88,30.26,29.83,18,0,18,0.00
2013-1-17,39,31,26,35,26,16,98,82,60,30.13,29.85,32,3,32,0.15
2013-1-18,27,20,13,16,8,0,89,61,43,30.45,30.06,36,4,36,0.00
2013-1-19,46,32,16,30,23,12,93,71,43,30.36,29.86,36,3,36,0.11
2013-1-20,49,37,27,33,30,25,93,77,50,29.86,29.58,54,7,65,0.04
2013-1-21,29,23,16,21,16,10,92,74,46,30.09,29.81,7,2,25,0.00
2013-1-22,22,18,11,19,7,-2,91,64,40,30.12,29.79,14,6,40,0.00
2013-1-23,14,8,1,1,-2,-7,85,63,45,30.19,30.11,50,5,50,0.00
2013-1-24,18,9,-2,4,-3,-6,85,61,39,30.30,30.15,54,8,54,0.00
2013-1-25,21,15,8,13,2,-2,86,57,36,30.37,30.07,40,4,40,0.00
2013-1-26,22,14,4,11,6,1,89,72,45,30.31,30.04,40,4,40,0.00
2013-1-27,29,17,5,10,6,2,91,65,35,30.50,30.30,25,3,25,0.00
2013-1-28,28,23,14,26,18,9,95,83,51,30.49,30.00,22,1,22,0.00
2013-1-29,35,31,27,33,30,26,97,94,88,30.19,30.01,25,1,25,0.17
2013-1-30,48,36,33,47,36,32,98,98,97,30.12,29.38,18,1,18,0.14
2013-1-31,56,42,31,56,34,13,99,73,46,29.63,28.97,83,11,83,0.45
2013-2-1,31,27,22,18,12,7,70,53,44,30.12,29.62,47,10,47,0.00
2013-2-2,30,23,14,17,11,6,77,59,38,30.25,30.04,47,4,47,0.00
2013-2-3,31,24,17,18,16,14,91,74,49,30.06,29.77,18,1,18,0.00
2013-2-4,28,22,17,19,14,9,92,73,45,29.97,29.76,40,5,40,0.00
2013-2-5,31,25,19,24,18,14,89,75,55,30.02,29.91,22,1,22,0.00
2013-2-6,36,28,21,27,18,6,94,70,40,30.34,29.90,43,4,43,0.01
2013-2-7,32,24,14,17,11,7,85,60,36,30.53,30.33,18,1,18,0.00
2013-2-8,30,26,21,28,21,10,94,82,50,30.43,29.74,43,2,43,0.00
2013-2-9,26,20,12,22,15,6,95,82,47,30.29,29.73,65,5,65,0.00
2013-2-10,40,18,0,21,9,-4,91,71,24,30.47,30.29,22,2,22,0.11
2013-2-11,34,27,14,33,25,12,97,93,83,30.36,29.66,11,0,11,0.07
2013-2-12,41,37,33,34,30,26,98,78,63,29.92,29.67,54,7,54,0.23
2013-2-13,43,35,30,29,27,24,87,73,48,29.89,29.72,22,2,22,0.10
2013-2-14,43,32,23,29,25,21,95,78,48,29.99,29.72,18,2,18,0.07
2013-2-15,52,34,22,34,28,21,94,79,42,29.98,29.89,47,2,47,0.04
2013-2-16,38,33,30,32,24,12,96,71,47,29.98,29.74,40,3,40,0.03
2013-2-17,30,22,14,15,7,2,61,52,43,29.83,29.55,76,17,76,0.00
2013-2-18,28,19,12,10,4,0,77,54,33,30.20,29.82,105,13,105,0.00
2013-2-19,42,28,14,36,23,9,97,81,58,30.19,29.59,43,2,43,0.09
2013-2-20,34,29,25,34,19,13,97,67,52,29.85,29.59,72,11,72,0.00
2013-2-21,26,24,20,18,14,12,80,67,59,30.32,29.82,58,10,58,0.00
2013-2-22,42,28,13,28,21,11,91,76,48,30.43,30.30,32,2,32,0.00
2013-2-23,36,34,32,35,31,27,97,90,79,30.31,29.89,22,1,22,0.05
2013-2-24,40,35,32,38,34,30,98,95,89,29.94,29.73,14,2,14,0.31
2013-2-25,42,33,25,34,29,24,100,87,65,30.26,29.93,18,0,18,0.00
2013-2-26,41,34,27,32,29,26,95,84,65,30.34,30.11,22,1,22,0.00
2013-2-27,40,36,33,39,35,30,97,96,80,30.12,29.62,32,1,32,1.48
2013-2-28,41,36,33,39,35,32,98,96,90,29.63,29.55,11,0,11,0.14
2013-3-1,43,36,30,36,31,27,98,84,58,29.73,29.57,36,3,36,0.00
2013-3-2,38,34,30,30,28,26,90,78,67,29.74,29.66,36,5,36,0.00
2013-3-3,34,30,27,26,24,21,83,78,69,29.70,29.62,36,8,36,0.00
2013-3-4,34,30,27,25,23,21,81,75,65,29.85,29.69,61,10,61,0.00
2013-3-5,46,35,27,32,27,22,91,73,50,30.08,29.85,32,4,32,0.00
2013-3-6,39,36,31,36,32,28,93,86,77,30.09,30.02,47,4,47,0.05
2013-3-7,37,34,32,34,30,28,96,86,71,30.09,30.03,40,6,40,0.01
2013-3-8,38,34,30,36,32,28,100,95,88,30.21,29.98,22,1,22,0.16
2013-3-9,58,38,24,32,25,12,96,70,17,30.36,30.19,29,2,29,0.32
2013-3-10,51,38,23,35,29,22,94,74,46,30.42,30.26,29,3,29,0.00
2013-3-11,48,41,32,41,36,30,94,83,67,30.31,30.10,43,4,43,0.00
2013-3-12,51,45,38,51,44,36,98,96,88,30.11,29.68,43,5,43,0.43
2013-3-13,46,38,30,36,29,24,100,75,41,29.84,29.76,36,5,36,0.00
2013-3-14,32,29,26,29,18,11,88,64,48,29.88,29.79,54,10,54,0.00
2013-3-15,42,31,23,32,20,10,92,64,35,29.91,29.67,47,6,47,0.00
2013-3-16,38,32,24,28,19,12,85,61,37,29.91,29.72,25,2,25,0.00
2013-3-17,36,29,22,20,14,8,82,55,33,30.33,29.91,47,5,47,0.00
2013-3-18,37,28,15,27,13,5,93,59,27,30.48,30.17,50,2,50,0.00
2013-3-19,35,31,29,34,30,27,97,95,91,30.17,29.68,14,1,14,0.00
2013-3-20,38,29,21,28,24,19,96,82,56,29.84,29.74,32,2,32,0.13
2013-3-21,40,28,17,23,17,13,94,70,34,29.84,29.62,18,2,18,0.26
2013-3-22,37,29,17,28,21,14,90,74,55,29.80,29.67,14,5,40,0.09
2013-3-23,40,35,31,27,24,21,83,64,48,29.85,29.74,22,11,69,0.12
2013-3-24,45,35,26,28,26,23,88,72,45,29.88,29.73,32,4,36,0.08
2013-3-25,44,36,29,31,28,25,90,73,50,29.78,29.51,47,2,47,0.00
2013-3-26,45,37,28,33,28,22,93,72,42,29.85,29.59,36,4,36,0.00
2013-3-27,52,37,23,34,28,22,95,72,39,29.92,29.80,40,5,40,0.00
2013-3-28,50,38,29,36,32,27,95,78,51,30.05,29.91,22,3,22,0.00
2013-3-30,55,41,29,34,27,20,95,63,27,30.13,30.04,14,4,36,0.02
2013-3-31,56,40,26,40,30,25,95,72,32,30.14,29.72,18,4,83,0.02
2013-4-1,60,42,33,47,36,19,98,82,52,29.83,29.55,18,5,50,0.23
2013-4-2,39,33,28,23,19,14,79,57,38,29.99,29.83,22,9,58,0.00
2013-4-3,42,35,30,22,18,13,69,50,34,30.22,29.98,22,13,61,0.00
2013-4-4,55,41,28,28,21,17,76,48,22,30.34,30.04,11,5,47,0.00
2013-4-5,60,43,31,31,27,20,88,57,22,30.03,29.71,32,8,47,0.00
2013-4-6,48,38,29,28,15,6,71,43,19,30.33,29.93,43,7,43,0.00
2013-4-7,58,38,26,40,28,20,91,70,34,30.33,29.98,61,4,79,0.00
2013-4-8,66,48,32,40,36,30,97,69,31,30.09,29.98,29,3,29,0.00
2013-4-9,67,54,43,55,44,39,98,71,42,30.03,29.87,47,6,47,0.04
2013-4-10,66,54,45,55,51,43,97,89,63,29.99,29.82,7,1,25,0.26
2013-4-11,56,48,38,53,42,32,100,81,53,30.14,29.84,36,2,36,0.08
2013-4-12,38,37,36,37,36,35,100,95,92,30.14,29.86,14,2,14,0.40
2013-4-13,52,46,36,43,39,35,98,78,56,29.89,29.81,11,1,18,0.05
2013-4-14,49,43,33,40,31,27,98,63,45,30.25,30.01,18,7,40,0.00
2013-4-15,34,31,29,30,29,28,94,92,85,30.38,30.26,4,0,4,0.00
2013-4-16,69,54,35,54,48,33,92,82,48,30.38,30.07,43,8,50,0.01
2013-4-17,65,56,46,54,40,30,94,59,28,30.27,30.08,58,6,58,0.02
2013-4-18,56,35,33,37,32,31,95,90,46,30.42,30.19,18,1,43,0.00
2013-4-19,65,60,52,63,58,50,96,92,86,29.99,29.60,54,7,54,0.18
2013-4-20,62,46,42,61,44,40,96,94,85,29.83,29.64,32,2,32,0.32
2013-4-21,54,42,31,28,23,19,75,50,26,30.65,30.30,14,6,36,0.00
2013-4-22,58,44,30,34,29,24,89,61,31,30.73,30.55,11,3,47,0.00
2013-4-23,45,41,36,39,35,31,86,80,75,30.58,30.16,7,2,36,0.00
2013-4-24,77,63,43,50,46,39,90,57,27,30.14,29.78,50,7,50,0.00
2013-4-25,59,52,44,50,35,23,94,58,26,30.20,29.82,40,10,40,0.03
2013-5-18,72,58,42,51,46,40,95,68,36,30.32,30.22,11,2,40,0.00
2013-5-19,61,54,44,56,51,43,97,92,80,30.34,30.20,7,2,32,0.10
2013-5-20,82,67,55,69,62,54,98,85,57,30.19,29.92,7,1,22,0.01
2013-5-21,89,70,59,74,65,56,97,84,49,29.97,29.79,4,1,40,0.01
2013-5-22,80,67,56,71,64,55,98,90,73,29.98,29.82,7,3,36,0.42
2013-5-23,74,68,66,70,67,65,98,94,85,29.86,29.75,7,4,43,0.64
2013-5-24,65,52,46,65,51,45,98,95,85,29.90,29.63,11,2,32,0.22
2013-5-25,46,45,43,46,44,40,98,96,90,29.89,29.82,40,2,40,0.58
2013-5-26,53,47,42,50,44,40,97,89,75,30.15,29.81,32,4,32,0.05
2013-5-27,69,54,38,51,42,35,99,71,30,30.20,30.10,32,3,32,0.01
2013-5-28,72,58,40,56,48,38,97,73,39,30.26,30.15,32,2,32,0.00
2013-5-29,76,64,58,71,62,56,98,94,82,30.16,29.93,36,2,36,0.98
2013-5-30,86,73,61,75,68,61,99,86,56,30.10,30.01,22,1,22,0.10
2013-5-31,91,75,62,76,67,62,100,79,39,30.12,29.94,22,0,22,0.00
2013-6-1,92,77,61,74,67,60,98,75,40,29.98,29.84,40,2,40,0.00
2013-6-2,90,75,66,74,69,65,97,85,55,29.88,29.71,50,4,50,0.12
2013-6-3,75,66,54,68,62,43,98,88,67,29.89,29.78,22,1,22,0.32
2013-6-4,69,55,47,54,48,43,92,77,49,30.12,29.88,22,1,22,0.00
2013-6-5,75,60,46,58,50,44,97,74,38,30.21,30.08,25,1,25,0.00
2013-6-6,70,60,49,58,53,48,97,81,56,30.19,30.07,54,2,54,0.06
2013-6-7,57,56,54,56,55,53,100,97,95,30.08,29.80,18,0,18,0.65
2013-6-8,71,61,53,65,58,52,99,91,73,30.04,29.67,36,3,36,0.65
2013-6-9,76,64,51,62,57,50,98,80,53,30.19,30.03,29,3,32,0.21
2013-6-10,65,59,52,64,57,50,100,95,91,30.21,30.04,22,0,22,0.05
2013-6-11,66,61,58,63,60,57,98,97,92,29.93,29.58,4,0,18,0.03
2013-6-12,69,60,54,59,55,52,98,86,63,29.86,29.62,14,3,40,0.02
2013-6-13,57,54,50,56,53,49,98,97,95,29.85,29.67,25,1,25,0.02
2013-6-14,73,59,51,63,55,51,99,89,53,29.77,29.65,14,1,14,0.01
2013-6-15,75,62,49,60,52,44,98,76,36,29.97,29.84,32,2,32,0.01
2013-6-16,74,58,48,63,53,47,97,87,61,29.98,29.71,43,2,43,0.02
2013-6-17,84,67,56,68,61,55,98,84,48,29.92,29.77,7,1,43,0.00
2013-6-18,75,63,58,67,62,57,98,94,75,29.93,29.88,4,0,22,0.02
2013-6-19,73,62,52,58,53,48,98,75,44,30.18,29.92,7,2,25,0.00
2013-6-20,78,66,46,62,55,44,96,70,36,30.28,30.18,25,1,25,0.00
2013-6-21,82,68,52,69,61,51,98,80,49,30.26,30.19,18,1,18,0.01
2013-6-22,84,72,60,70,63,59,98,76,43,30.23,30.08,32,2,32,0.01
2013-6-23,91,76,63,77,67,60,92,76,48,30.15,29.99,36,2,36,0.00
2013-6-24,89,76,66,76,70,64,98,82,55,30.03,29.89,25,2,25,0.00
2013-6-25,89,73,65,77,70,64,98,91,54,29.96,29.74,18,0,32,0.00
2013-6-26,80,73,68,74,70,66,99,91,75,29.83,29.74,22,0,22,0.00
2013-6-27,81,72,66,74,69,65,98,91,73,29.83,29.65,36,1,36,0.01
2013-6-28,83,73,67,75,71,66,98,92,66,29.65,29.43,36,3,36,0.00
2013-6-29,85,74,67,74,69,65,98,85,57,29.70,29.48,40,3,40,0.02
2013-6-30,84,73,66,77,70,65,98,92,72,29.92,29.69,36,2,36,0.04
2013-7-1,75,73,71,74,72,70,98,97,96,30.05,29.91,14,1,14,0.32
2013-7-2,82,76,71,76,73,70,98,91,78,30.15,30.04,40,3,40,0.01
2013-7-3,86,78,72,76,73,71,96,85,64,30.20,30.13,32,2,32,0.01
2013-7-4,90,78,70,78,72,69,98,85,58,30.21,30.09,25,1,25,0.00
2013-7-5,92,80,70,80,73,69,98,81,54,30.17,30.03,32,1,32,0.00
2013-7-6,87,78,70,77,73,69,98,85,62,30.09,29.98,18,1,18,0.00
2013-7-7,90,76,68,81,73,67,98,90,66,30.04,29.91,14,0,14,0.02
2013-7-8,84,75,70,76,72,69,98,90,66,30.02,29.91,32,1,32,0.31
2013-7-9,81,74,70,75,72,69,98,94,77,30.07,29.99,18,0,18,0.04
2013-7-10,82,76,72,78,74,71,98,94,83,30.02,29.77,40,2,40,0.17
2013-7-11,80,73,67,74,70,66,99,91,70,29.95,29.76,14,0,14,0.00
2013-7-12,80,71,63,70,65,62,99,83,61,30.19,29.95,22,1,25,0.00
2013-7-13,66,66,64,64,64,62,96,93,91,30.28,30.18,4,0,4,0.02
2013-7-14,86,77,70,77,73,69,98,88,64,30.31,30.20,7,1,18,0.00
2013-7-15,89,80,68,77,73,68,98,80,55,30.23,30.11,18,1,25,0.00
2013-7-16,90,78,67,78,71,66,98,83,53,30.19,30.11,22,1,22,0.00
2013-7-17,90,78,66,78,72,66,98,83,53,30.20,30.01,14,1,14,0.00
2013-7-18,91,80,70,78,74,69,98,83,55,30.03,29.93,18,1,18,0.00
2013-7-19,94,82,69,79,74,68,97,79,55,29.95,29.71,32,1,32,0.00
2013-7-20,88,77,66,79,72,63,97,84,59,29.84,29.66,22,1,36,0.00
2013-7-21,84,72,62,72,66,60,96,82,48,29.98,29.84,11,0,11,0.00
2013-7-22,84,74,63,74,68,62,98,85,63,29.99,29.82,32,1,32,0.02
2013-7-23,84,75,72,78,73,71,98,93,71,29.81,29.54,25,2,25,1.04
2013-7-30,77,67,55,64,60,55,98,81,53,30.13,30.06,11,2,25,0.00
2013-7-31,80,68,56,66,61,55,98,82,52,30.17,30.03,4,0,25,0.00
2013-8-1,77,64,58,68,62,57,98,94,75,30.05,29.85,7,2,40,0.15
2013-8-2,79,70,64,68,65,61,98,85,57,29.88,29.79,7,2,22,0.04
2013-8-3,77,67,58,68,62,57,98,87,58,29.88,29.79,7,1,22,0.00
2013-8-4,75,63,53,64,58,52,98,84,61,29.93,29.82,11,2,32,0.00
2013-8-5,74,65,50,59,53,48,98,69,43,30.07,29.93,25,3,25,0.00
2013-8-6,78,63,48,61,55,47,97,77,46,30.14,30.06,36,1,36,0.00
2013-8-7,78,67,56,66,60,55,97,80,53,30.18,30.08,40,2,40,0.00
2013-8-8,76,74,67,72,71,66,97,90,86,30.03,29.99,14,1,18,0.01
2013-8-9,75,74,72,74,72,70,97,93,91,29.99,29.76,11,1,11,1.50
2013-8-12,70,65,62,66,63,61,96,93,88,29.94,29.91,4,0,4,0.00
2013-8-13,72,66,61,70,65,60,98,96,88,29.93,29.67,22,1,22,0.19
2013-8-14,70,61,53,64,56,52,98,85,64,30.00,29.71,32,3,32,0.00
2013-8-15,73,60,49,61,54,48,98,83,50,30.15,30.00,25,2,29,0.00
2013-8-16,75,61,49,65,56,48,98,86,52,30.22,30.12,25,1,25,0.00
2013-8-17,80,65,51,67,59,51,98,84,47,30.29,30.22,22,0,22,0.33
2013-8-18,77,65,55,69,62,54,98,91,72,30.28,30.10,11,0,11,0.00
2013-8-19,76,67,59,69,63,58,98,89,69,30.10,29.99,18,1,18,0.00
2013-8-20,81,68,57,70,63,57,98,85,56,30.13,30.02,18,1,18,0.00
2013-8-21,84,69,57,72,64,56,98,86,51,30.18,30.03,18,1,18,0.00
2013-8-22,83,70,61,76,67,60,98,90,72,30.06,29.83,25,1,25,0.03
2013-8-23,78,68,55,67,63,54,100,85,52,30.15,29.85,25,2,25,0.00
2013-8-24,77,62,48,62,54,47,98,78,49,30.33,30.15,14,1,14,0.00
2013-8-25,82,65,50,65,58,49,100,80,43,30.40,30.19,18,1,18,0.00
2013-8-26,79,68,60,71,65,59,98,89,69,30.20,29.88,18,0,18,0.31
2013-8-27,82,73,67,75,70,67,98,93,67,29.90,29.82,18,0,18,0.20
2013-8-28,86,73,64,75,69,64,98,87,61,29.93,29.82,22,1,22,0.02
2013-8-29,77,69,65,69,66,62,98,90,70,30.06,29.92,29,1,29,0.00
2013-8-30,68,66,64,66,64,62,96,94,91,30.03,29.96,11,0,11,0.00
2013-8-31,68,68,68,66,66,66,93,93,93,29.97,29.97,0,0,0,0.00
2013-9-1,68,68,68,66,66,66,93,93,93,29.97,29.97,0,0,0,0.00
2013-9-2,77,73,69,74,72,68,98,95,88,29.82,29.67,25,1,25,0.19
2013-9-3,72,66,58,68,64,57,99,94,76,29.86,29.69,11,0,11,0.03
2013-9-4,71,61,58,64,59,57,98,94,79,29.94,29.85,11,0,11,0.00
2013-9-5,70,60,49,63,54,46,99,84,45,30.17,29.88,22,2,22,0.01
2013-9-6,68,53,42,55,46,40,98,81,40,30.27,30.13,18,1,18,0.00
2013-9-7,77,59,43,64,53,43,98,84,44,30.13,29.88,14,0,14,0.00
2013-9-8,72,64,60,64,60,52,98,90,55,29.88,29.78,36,3,36,0.00
2013-9-9,64,55,41,58,53,40,97,91,81,30.26,30.12,4,0,4,0.00
2013-9-10,74,64,52,72,63,51,98,96,91,30.14,29.98,36,1,36,0.03
2013-9-11,92,75,65,81,72,65,99,90,58,30.08,29.93,22,1,22,0.08
2013-9-12,70,68,67,68,67,66,98,98,97,29.96,29.91,4,0,11,0.00
2013-9-23,60,50,40,50,45,39,98,82,57,30.05,29.88,11,2,22,0.00
2013-9-24,64,50,37,50,44,36,98,82,51,30.05,29.85,11,3,22,0.00
2013-9-25,71,55,42,59,50,41,98,85,50,29.98,29.86,4,1,32,0.00
2013-9-26,64,56,47,54,51,46,97,85,60,30.14,29.99,4,1,22,0.00
2013-9-27,61,52,43,56,49,42,98,91,73,30.30,30.14,4,0,18,0.00
2013-9-28,72,55,42,60,50,41,98,88,54,30.36,30.27,4,1,22,0.00
2013-9-29,70,54,45,58,50,44,98,88,60,30.28,30.17,11,1,22,0.00
2013-9-30,72,54,43,60,51,42,97,88,57,30.13,29.96,4,0,22,0.00
2013-10-1,77,58,44,64,53,43,98,86,56,30.01,29.88,7,1,18,0.00
2013-10-2,75,61,49,64,56,49,98,86,66,29.94,29.88,11,3,32,0.00
2013-10-11,70,54,44,59,50,43,98,86,59,30.19,30.08,4,1,25,0.00
2013-10-12,65,52,40,57,50,40,98,91,71,30.38,30.17,7,1,25,0.00
2013-10-13,61,56,50,53,50,48,94,84,68,30.44,30.36,4,1,22,0.00
2013-10-14,65,54,45,54,50,44,97,86,63,30.39,30.23,7,1,36,0.00
2013-10-15,69,58,49,58,54,49,98,87,64,30.27,30.14,4,0,18,0.00
2013-10-16,59,52,46,53,49,45,98,92,75,30.15,29.92,0,0,11,0.00
2013-10-17,72,58,50,60,54,49,98,89,53,29.91,29.67,14,1,14,0.01
2013-10-18,62,60,55,61,59,54,98,97,93,29.70,29.60,25,3,25,0.03
2013-10-19,65,55,36,51,46,35,97,75,44,29.99,29.73,25,2,54,0.01
2013-10-20,60,49,39,50,41,34,100,76,39,30.05,29.71,22,3,32,0.01
2013-10-21,66,49,35,46,40,34,97,75,40,30.14,29.97,32,2,32,0.00
2013-10-22,63,47,37,52,43,36,98,86,62,29.97,29.72,25,1,25,0.00
2013-10-23,53,42,32,40,35,31,97,80,45,29.82,29.59,14,0,14,0.00
2013-10-24,52,42,32,37,32,26,96,69,36,29.93,29.69,32,3,36,0.00
2013-10-25,48,38,30,34,30,28,96,77,51,30.18,29.93,47,4,47,0.00
2013-10-26,54,40,26,38,30,25,97,70,36,30.19,29.86,54,3,54,0.00
2013-10-27,53,44,32,38,34,30,93,69,45,30.10,29.81,36,4,36,0.00
2013-10-28,56,40,28,39,32,26,96,77,46,30.38,30.10,32,2,32,0.00
2013-10-29,50,36,29,30,27,23,95,73,35,30.48,30.37,18,1,18,0.00
2013-10-30,56,40,30,44,35,26,95,84,60,30.38,30.19,14,0,14,0.00
2013-10-31,58,42,32,58,41,30,98,96,91,30.26,29.76,43,1,43,0.15
2013-11-1,67,60,47,64,56,46,99,87,64,29.76,29.44,54,7,54,0.07
2013-11-2,66,49,39,48,43,38,98,82,45,29.71,29.59,36,1,36,0.00
2013-11-3,46,38,27,44,25,18,95,60,37,30.46,29.75,25,4,25,0.00
2013-11-4,43,30,22,24,20,16,93,69,34,30.72,30.46,36,1,36,0.00
2013-11-5,51,36,24,37,30,21,91,78,52,30.73,30.51,32,1,32,0.00
2013-11-6,60,48,36,49,42,34,95,80,60,30.51,30.02,40,3,40,0.00
2013-11-7,61,50,35,57,47,33,96,87,78,30.02,29.72,36,4,36,0.06
2013-11-8,46,38,31,37,32,24,98,81,48,30.05,29.86,54,5,54,0.01
2013-11-9,45,32,24,33,28,23,96,88,59,30.25,30.00,14,0,22,0.00
2013-11-10,50,41,34,43,36,31,97,83,64,30.00,29.77,50,3,50,0.01
2013-11-11,51,44,38,36,31,28,73,60,46,30.14,29.90,54,7,54,0.00
2013-11-12,48,34,24,37,24,18,87,68,56,30.25,29.89,40,6,40,0.01
2013-11-13,35,28,22,20,17,13,80,64,40,30.34,30.19,36,4,36,0.00
2013-11-14,41,28,24,27,23,20,90,82,57,30.19,30.10,11,0,11,0.00
2013-11-15,59,32,22,29,24,20,94,76,27,30.24,30.10,25,1,25,0.00
2013-11-16,54,35,32,38,30,27,94,84,52,30.33,30.22,11,0,11,0.00
2013-11-17,55,39,31,54,38,30,98,95,90,30.31,29.80,18,1,18,0.10
2013-11-18,62,53,42,58,48,35,98,82,46,29.80,29.53,43,4,43,0.17
2013-11-19,45,38,28,36,26,21,79,61,49,30.35,29.71,61,9,61,0.00
2013-11-20,42,29,21,22,19,13,89,68,31,30.66,30.34,22,2,22,0.00
2013-11-21,44,31,18,30,24,16,93,76,46,30.68,30.40,25,1,25,0.00
2013-11-22,45,40,35,44,38,30,98,93,81,30.40,29.86,18,0,18,0.06
2013-11-23,46,37,27,44,27,15,98,66,44,30.01,29.84,72,10,72,0.00
2013-11-24,27,22,17,15,7,2,70,52,35,30.27,29.88,40,15,54,0.00
2013-11-25,31,29,27,19,17,15,70,59,53,30.36,30.27,18,2,18,0.00
2013-11-26,37,33,29,32,26,15,96,76,48,30.33,29.99,29,1,29,0.25
2013-11-27,44,37,33,44,36,29,98,95,79,29.99,29.32,43,3,43,2.04
2013-11-28,35,27,19,30,17,10,89,68,47,30.47,29.57,61,10,61,0.00
2013-11-29,33,24,17,19,17,15,94,76,49,30.76,30.47,25,2,25,0.00
2013-11-30,30,20,11,19,14,9,92,79,48,30.82,30.42,14,0,25,0.00
2013-12-1,40,32,27,35,29,18,95,87,70,30.42,30.05,7,0,7,0.01
2013-12-2,41,36,32,38,34,31,100,94,89,30.05,29.92,7,0,7,0.00
2013-12-3,50,38,28,40,33,26,97,85,63,30.00,29.87,18,1,18,0.00
2013-12-4,46,32,25,35,29,24,97,89,62,30.21,29.99,18,0,18,0.00
2013-12-5,45,37,31,44,36,30,98,96,92,30.21,29.93,22,0,22,0.03
2013-12-6,46,43,42,46,41,34,98,92,73,30.07,29.87,18,2,18,0.00
2013-12-7,35,31,25,33,28,23,98,89,70,30.48,30.11,25,1,25,0.02
2013-12-8,31,27,21,25,23,19,95,85,64,30.60,30.47,11,0,11,0.00
2013-12-9,33,30,26,33,28,22,97,91,77,30.48,29.95,0,0,14,0.07
2013-12-10,33,26,18,33,25,17,98,95,93,30.02,29.83,4,0,11,0.01
2013-12-11,30,22,16,23,20,14,95,91,76,30.23,30.04,4,1,18,0.00
2013-12-12,22,16,8,20,11,6,94,81,49,30.31,30.09,36,2,36,0.00
2013-12-13,29,18,6,22,13,4,93,81,64,30.39,30.03,25,2,25,0.00
2013-12-14,20,15,12,14,10,4,92,80,69,30.60,30.10,18,1,18,0.00
2013-12-15,33,25,16,30,23,14,95,91,79,30.10,29.51,47,3,47,0.00
2013-12-16,26,18,5,18,12,3,94,80,51,30.24,29.75,32,3,32,0.00
2013-12-17,17,8,-2,15,5,-5,92,89,85,30.28,29.98,7,0,7,0.00
2013-12-18,31,20,11,26,18,8,96,90,74,30.11,29.96,14,1,14,0.00
2013-12-19,40,24,9,30,20,7,100,85,59,30.15,29.98,40,1,40,0.01
2013-12-20,40,34,27,37,32,26,97,92,78,30.13,29.92,11,0,11,0.16
2013-12-21,44,35,28,42,34,28,98,94,83,29.98,29.85,11,1,18,0.39
2013-12-22,63,44,35,58,42,34,99,96,79,29.95,29.70,50,4,50,0.13
2013-12-23,43,38,34,42,37,29,98,97,74,30.16,29.92,32,1,32,0.36
2013-12-24,35,30,21,32,22,11,100,71,52,30.30,30.08,40,5,40,0.00
2013-12-25,26,20,14,13,8,5,82,63,43,30.53,30.29,36,4,36,0.00
2013-12-26,31,24,17,29,20,12,94,85,71,30.48,30.12,22,0,22,0.00
2013-12-27,35,23,12,27,19,10,96,85,57,30.32,30.22,18,1,18,0.02
2013-12-28,44,27,17,34,24,15,96,88,61,30.25,30.02,18,1,18,0.01
2013-12-29,34,29,25,33,28,24,97,95,91,30.06,29.60,7,0,7,0.20
2013-12-30,35,24,18,32,16,8,88,73,65,30.18,29.87,32,7,32,0.01
2013-12-31,27,24,13,19,16,10,90,72,63,30.15,30.02,22,2,22,0.00
2014-1-1,28,24,17,18,13,8,85,64,45,30.39,30.32,25,3,25,0.00
2014-1-2,22,17,10,18,14,6,90,87,82,30.34,29.84,22,2,22,0.00